Location: ?????
(38.2579°N, 22.9711°E)
Time: 13:15:26
(UTC+00:00)

YAOGAN 1 - Pass Details

Date: 13 December 2025
Orbit: 605 x 607 km, 97.8° (Epoch: 17 January)

Event Time Altitude Azimuth Distance (km) Brightness Sun altitude
Rises 15:42:22 0° 119° (ESE) 2,856 5.6 -6.8°
Reaches altitude 10° 15:45:43 10° 90° (E) 1,957 4.6 -7.4°
Maximum altitude 15:47:30 13° 65° (ENE) 1,798 4.3 -7.7°
Drops below altitude 10° 15:49:18 10° 40° (NE) 1,963 4.6 -8.0°
Sets 15:52:40 0° 11° (N) 2,872 5.6 -8.6°
